Hourly Data Report for June 23, 2012

All times are specified in Local Standard Time (LST). Add 1 hour to adjust for Daylight Saving Time where and when it is observed.

SAINT JOHN A
NEW BRUNSWICK

45°18'58.000" N
65°53'24.000" W
108.80 m
8104901
71609
YSJ

Download Data

Hourly Data (June 2012)
Hourly Data Report for June 23, 2012
Temp Definition
°C
Dew Point Temp Definition
°C
Rel Hum Definition
%
Wind Dir Definition
10's deg

Wind Spd Definition
km/h
Visibility Definition
km
Stn Press Definition
kPa
Hmdx Definition


Wind Chill Definition


Weather Definition


TIME
00:00 Legend Double Dagger 15.8 15.2 96 21 6 10.0 99.78     Rain Showers
01:00 Legend Double Dagger 15.5 15.0 97 14 14 10.0 99.77     Rain Showers
02:00 Legend Double Dagger 14.8 14.5 98 15 17 10.0 99.79     Rain Showers
03:00 Legend Double Dagger 14.1 13.8 98 15 12 10.0 99.78     Rain Showers
04:00 Legend Double Dagger 14.4 13.9 97 14 17 10.0 99.74     LegendNANA
05:00 Legend Double Dagger 14.5 13.9 96 14 18 10.0 99.75     Cloudy
06:00 Legend Double Dagger 14.2 13.7 97 13 12 8.1 99.82     Fog
07:00 Legend Double Dagger 14.1 13.8 98 10 8 1.6 99.85     Rain,Fog
08:00 Legend Double Dagger 14.2 14.1 99 13 13 2.4 99.85     Rain,Fog
09:00 Legend Double Dagger 13.9 13.4 97 12 13 4.0 99.85     Rain,Fog
10:00 Legend Double Dagger 14.2 13.7 97 9 4 6.4 99.88     Rain,Fog
11:00 Legend Double Dagger 14.5 14.0 97 9 14 8.1 99.90     Rain,Fog
12:00 Legend Double Dagger 14.2 13.7 97 10 17 4.8 99.91     Fog
13:00 Legend Double Dagger 14.7 14.2 97 10 13 3.2 99.91     Rain,Fog
14:00 Legend Double Dagger 14.4 13.9 97 12 11 3.2 99.92     Fog
15:00 Legend Double Dagger 14.3 14.0 98 11 13 3.2 99.93     Rain,Fog
16:00 Legend Double Dagger 14.2 13.9 98 10 13 3.2 99.94     Rain,Fog
17:00 Legend Double Dagger 14.4 14.1 98 9 13 3.2 99.90     Rain,Fog
18:00 Legend Double Dagger 14.2 13.9 98 10 12 3.2 99.89     Rain,Fog
19:00 Legend Double Dagger 13.9 13.8 99 6 14 2.4 99.90     Moderate Rain,Fog
20:00 Legend Double Dagger 13.9 13.6 98 9 17 9.7 99.81     Rain,Fog
21:00 Legend Double Dagger 13.6 13.3 98 8 12 6.4 99.81     Fog
22:00 Legend Double Dagger 13.4 12.9 97 8 4 9.7 99.83     Rain,Fog
23:00 Legend Double Dagger 13.1 12.8 98 10 10 4.8 99.81     Rain,Fog

Notes on Data Quality.

Legend

  • E = Estimated
  • M = Missing
  • NA = Not Available
  • ‡ = Partner data that is not subject to review by the National Climate Archives
Date modified: